GW6442 Weather Reports


time (UTC)temp
C
wind
direction
speed
KPH
gust
KPH
rain 1hr
cm
rain 24hr
cm
rain mn
cm
humidity
%
barometer
mb
20260505230054 23 127 1.6 4.8 0.00 0.00 0.00 62 1017.1
20260505224552 23 140 1.6 6.4 0.00 0.00 0.00 60 1017.0
20260505223054 23 140 1.6 6.4 0.00 0.00 0.00 57 1017.2
20260505221552 23 142 1.6 6.4 0.00 0.00 0.00 57 1017.1
20260505220053 24 105 1.6 4.8 0.00 0.00 0.00 56 1017.1
20260505214555 25 137 1.6 6.4 0.00 0.00 0.00 55 1017.1
20260505213052 25 175 1.6 14.5 0.00 0.00 0.00 55 1017.0
20260505211606 25 122 1.6 8.0 0.00 0.00 0.00 55 1017.1
20260505210055 25 142 3.2 8.0 0.00 0.00 0.00 54 1017.2
20260505204600 25 281 3.2 9.7 0.00 0.00 0.00 53 1017.2
20260505203058 25 133 3.2 11.3 0.00 0.00 0.00 53 1017.3
20260505201558 26 132 3.2 12.9 0.00 0.00 0.00 51 1017.2
20260505200055 25 259 3.2 8.0 0.00 0.00 0.00 52 1017.6
20260505194607 25 116 3.2 11.3 0.00 0.00 0.00 50 1017.7
20260505193054 25 126 4.8 11.3 0.00 0.00 0.00 51 1017.7
20260505191553 25 138 3.2 11.3 0.00 0.00 0.00 50 1017.9
20260505190056 25 128 3.2 12.9 0.00 0.00 0.00 49 1018.1
20260505184553 25 134 3.2 11.3 0.00 0.00 0.00 51 1018.2
20260505183053 26 66 1.6 6.4 0.00 0.00 0.00 49 1018.2
20260505181557 26 229 3.2 11.3 0.00 0.00 0.00 50 1018.2
20260505180058 26 132 1.6 9.7 0.00 0.00 0.00 48 1018.2
20260505174557 25 107 1.6 12.9 0.00 0.00 0.00 51 1018.4
20260505173049 25 279 3.2 14.5 0.00 0.00 0.00 50 1018.6
20260505171554 25 147 3.2 11.3 0.00 0.00 0.00 50 1018.7
20260505170053 25 268 3.2 20.9 0.00 0.00 0.00 51 1018.6
20260505164615 25 103 1.6 6.4 0.00 0.00 0.00 52 1018.7
20260505163101 24 92 3.2 9.7 0.00 0.00 0.00 53 1018.7
20260505161612 24 136 3.2 6.4 0.00 0.00 0.00 54 1019.1
20260505153053 23 270 1.6 9.7 0.00 0.00 0.00 57 1019.3
20260505151555 23 144 1.6 11.3 0.00 0.00 0.00 59 1019.2
20260505130109 18 271 0.0 3.2 0.00 0.00 0.00 80 1018.7
20260505124602 16 270 0.0 3.2 0.00 0.00 0.00 94 1018.6
20260505123053 15 0 0.0 1.6 0.00 0.00 0.00 96 1018.5
20260505121552 13 0 0.0 0.0 0.00 0.00 0.00 96 1018.6
20260505120107 11 0 0.0 0.0 0.00 0.00 0.00 95 1018.4
20260505114553 10 0 0.0 0.0 0.00 0.00 0.00 94 1018.3
20260505113055 9 0 0.0 0.0 0.00 0.00 0.00 94 1018.2
20260505111552 9 0 0.0 0.0 0.00 0.00 0.00 94 1017.9
20260505110106 8 0 0.0 0.0 0.00 0.00 0.00 94 1017.8
20260505101553 8 0 0.0 0.0 0.00 0.00 0.00 93 1017.4
20260505100049 8 0 0.0 0.0 0.00 0.00 0.00 93 1017.3
20260505094555 8 0 0.0 0.0 0.00 0.00 0.00 93 1017.1
20260505093052 8 0 0.0 0.0 0.00 0.00 0.00 93 1017.2
20260505091553 9 0 0.0 0.0 0.00 0.00 0.00 93 1017.0
20260505090100 9 0 0.0 0.0 0.00 0.00 0.00 93 1017.0
20260505084552 9 0 0.0 0.0 0.00 0.00 0.00 93 1016.7
20260505083054 9 0 0.0 0.0 0.00 0.00 0.00 93 1016.7
20260505081608 9 0 0.0 0.0 0.00 0.00 0.00 93 1016.7
20260505080104 10 0 0.0 0.0 0.00 0.00 0.00 92 1016.7
20260505074553 10 0 0.0 0.0 0.00 0.00 0.00 93 1016.7
20260505073057 10 0 0.0 0.0 0.00 0.00 0.00 92 1016.8
20260505071556 10 0 0.0 0.0 0.00 0.00 0.00 92 1016.7
20260505070056 10 0 0.0 0.0 0.00 0.00 0.00 92 1016.8
20260505064556 10 0 0.0 0.0 0.00 0.00 0.00 92 1016.7
20260505063102 11 0 0.0 0.0 0.00 0.00 0.00 92 1016.7
20260505061600 11 0 0.0 0.0 0.00 0.00 0.00 91 1017.0
20260505060055 11 0 0.0 0.0 0.00 0.00 0.00 91 1017.1
20260505054557 11 0 0.0 0.0 0.00 0.00 0.00 90 1017.3
20260505053105 11 0 0.0 0.0 0.00 0.00 0.00 90 1017.5
20260505051556 11 0 0.0 0.0 0.00 0.00 0.00 89 1017.7
20260505041554 12 0 0.0 0.0 0.00 0.00 0.00 87 1017.8
20260505040106 12 0 0.0 0.0 0.00 0.00 0.00 86 1017.7
20260505034554 12 0 0.0 0.0 0.00 0.00 0.00 85 1017.8
20260505033052 13 0 0.0 0.0 0.00 0.00 0.00 84 1017.8
20260505031558 13 0 0.0 0.0 0.00 0.00 0.00 82 1017.8
20260505030103 13 0 0.0 0.0 0.00 0.00 0.00 80 1017.8
20260505024548 14 0 0.0 0.0 0.00 0.00 0.00 78 1017.8
20260505023057 15 0 0.0 0.0 0.00 0.00 0.00 76 1017.9
20260505021559 15 0 0.0 4.8 0.00 0.00 0.00 76 1018.0
20260505020058 15 0 0.0 0.0 0.00 0.00 0.00 74 1017.9
20260505014555 16 0 0.0 0.0 0.00 0.00 0.00 73 1017.7
20260505013053 16 0 0.0 0.0 0.00 0.00 0.00 71 1017.6
20260505011557 16 0 0.0 0.0 0.00 0.00 0.00 71 1017.3
20260505010058 17 0 0.0 1.6 0.00 0.00 0.00 68 1017.3
20260505004553 17 290 0.0 3.2 0.00 0.00 0.00 67 1017.2
20260505003051 18 210 0.0 1.6 0.00 0.00 0.00 65 1017.1
20260505001553 18 0 0.0 6.4 0.00 0.00 0.00 62 1017.0
20260504234555 20 0 1.6 9.7 0.00 0.00 0.00 58 1016.8
20260504233054 20 224 4.8 14.5 0.00 0.00 0.00 57 1016.8
20260504231551 21 190 1.6 6.4 0.00 0.00 0.00 56 1016.8